�N����,����,�~����,�C��,���x,�C��,����,���ϕ���,�ő�u�ԕ���,�ő厞����,���˗�,�I�_���x,�n�����x,�ő啗���N��,DTYPE
"16/05/07","00:10",0.0,14.4,95.1,1008.3,297.3,0.8,1.0,304.9,0.00,13.7,16.5,"00:08:00",1
"16/05/07","00:20",0.0,14.4,95.1,1007.6,294.6,0.7,1.0,281.0,0.00,13.7,16.7,"00:17:44",1
"16/05/07","00:30",0.0,14.4,95.1,1007.4,297.6,1.0,1.4,308.3,0.00,13.7,16.3,"00:26:08",1
"16/05/07","00:40",0.0,14.4,95.1,1007.6,306.8,1.0,1.3,311.4,0.00,13.7,16.2,"00:31:12",1
"16/05/07","00:50",0.0,14.4,95.1,1007.4,290.4,0.8,1.2,266.7,0.00,13.7,16.4,"00:45:20",1
"16/05/07","01:00",0.0,14.4,95.2,1007.6,295.5,1.1,1.4,301.8,0.00,13.7,16.4,"00:51:12",1
"16/05/07","01:10",0.0,14.4,95.2,1007.4,324.7,0.6,1.6,334.2,0.00,13.7,16.4,"01:01:52",1
"16/05/07","01:20",0.0,14.4,95.1,1007.4,323.9,1.0,1.4,330.5,0.00,13.7,16.4,"01:13:20",1
"16/05/07","01:30",0.0,14.4,95.1,1007.1,299.8,1.0,1.2,321.1,0.00,13.7,16.5,"01:25:44",1
"16/05/07","01:40",0.0,14.4,95.2,1006.9,312.0,1.1,1.7,316.9,0.00,13.7,16.4,"01:34:00",1
"16/05/07","01:50",0.0,14.4,95.2,1006.9,296.5,0.6,1.1,316.4,0.00,13.7,16.4,"01:40:24",1
"16/05/07","02:00",0.0,14.4,95.2,1006.9,312.8,1.0,1.4,327.3,0.00,13.7,16.3,"01:54:00",1
"16/05/07","02:10",0.0,14.3,95.3,1006.9,296.8,1.0,1.2,305.2,0.00,13.6,16.4,"02:09:12",1
"16/05/07","02:20",0.0,14.3,95.3,1006.7,325.0,1.3,2.0,341.3,0.00,13.6,16.4,"02:18:48",1
"16/05/07","02:30",0.0,14.3,95.4,1006.9,323.0,1.2,1.6,313.2,0.00,13.6,16.3,"02:20:24",1
"16/05/07","02:40",0.0,14.3,95.4,1006.7,298.2,0.8,1.1,312.0,0.00,13.6,16.3,"02:38:40",1
"16/05/07","02:50",0.0,14.3,95.4,1006.7,302.1,0.8,1.1,320.6,0.00,13.6,16.3,"02:43:44",1
"16/05/07","03:00",0.0,14.3,95.5,1006.7,294.0,0.7,1.1,304.8,0.00,13.6,16.3,"02:57:04",1
"16/05/07","03:10",0.0,14.4,95.4,1006.4,325.0,1.1,1.4,321.1,0.00,13.7,16.2,"03:09:28",1
"16/05/07","03:20",0.0,14.4,95.4,1006.7,293.0,0.8,1.4,325.9,0.00,13.7,16.3,"03:10:08",1
"16/05/07","03:30",0.0,14.4,95.5,1006.4,316.4,1.1,1.4,319.5,0.00,13.7,16.2,"03:26:56",1
"16/05/07","03:40",0.0,14.4,95.4,1006.2,294.0,0.7,1.4,331.8,0.00,13.7,16.4,"03:32:40",1
"16/05/07","03:50",0.0,14.4,95.5,1006.0,307.0,1.0,1.6,334.1,0.00,13.7,16.4,"03:46:48",1
"16/05/07","04:00",0.0,14.4,95.5,1005.7,320.6,0.8,1.4,338.6,0.00,13.7,16.4,"03:57:52",1
"16/05/07","04:10",0.0,14.4,95.6,1006.2,316.9,1.1,1.6,323.5,0.00,13.7,16.4,"04:01:28",1
"16/05/07","04:20",0.0,14.4,95.7,1005.7,279.2,0.7,1.2,258.5,0.00,13.8,16.2,"04:12:48",1
"16/05/07","04:30",0.0,14.4,95.7,1006.0,309.3,1.1,1.7,343.6,0.00,13.8,16.1,"04:24:08",1
"16/05/07","04:40",0.0,14.5,95.6,1005.0,286.8,1.0,1.6,288.5,0.00,13.8,16.0,"04:38:56",1
"16/05/07","04:50",0.0,14.5,95.5,1005.0,304.3,1.0,1.7,327.9,0.00,13.8,16.2,"04:44:48",1
"16/05/07","05:00",0.0,14.6,95.4,1005.7,304.3,1.0,1.4,333.0,0.00,13.9,16.2,"04:56:56",1
"16/05/07","05:10",0.0,14.7,95.4,1005.5,320.4,1.0,1.4,317.0,0.00,14.0,16.3,"05:08:32",1
"16/05/07","05:20",0.0,14.8,95.3,1005.5,323.7,1.1,1.8,345.0,0.00,14.1,16.3,"05:17:52",1
"16/05/07","05:30",0.0,14.8,95.4,1005.5,325.3,0.8,1.2,327.9,0.00,14.1,16.4,"05:22:24",1
"16/05/07","05:40",0.0,14.9,95.3,1005.5,314.0,0.8,1.3,336.8,0.00,14.2,16.2,"05:30:02",1
"16/05/07","05:50",0.0,15.0,95.4,1005.7,319.9,1.1,1.7,331.4,0.00,14.3,16.0,"05:42:24",1
"16/05/07","06:00",0.0,15.0,95.3,1006.0,295.5,0.8,1.2,323.2,0.00,14.3,16.3,"05:54:40",1
"16/05/07","06:10",0.0,15.2,95.3,1006.0,301.2,0.8,1.4,335.2,0.00,14.5,16.1,"06:04:08",1
"16/05/07","06:20",0.0,15.3,95.0,1005.7,281.5,0.7,1.1,290.6,0.00,14.5,16.3,"06:12:16",1
"16/05/07","06:30",0.0,15.4,94.8,1005.7,310.6,0.7,1.1,310.7,0.00,14.6,16.2,"06:22:24",1
"16/05/07","06:40",0.0,15.6,94.3,1005.7,296.3,0.8,1.3,321.3,0.02,14.7,16.2,"06:34:56",1
"16/05/07","06:50",0.0,15.8,93.9,1005.7,316.8,1.1,1.8,333.5,0.02,14.9,16.3,"06:46:16",1
"16/05/07","07:00",0.0,16.0,93.9,1005.7,315.8,1.0,1.7,333.7,0.03,15.1,16.1,"06:51:20",1
"16/05/07","07:10",0.0,16.1,93.6,1005.5,311.4,1.0,1.4,331.1,0.03,15.1,16.3,"07:00:40",1
"16/05/07","07:20",0.0,16.4,92.9,1006.0,307.9,1.0,1.6,308.9,0.05,15.3,16.4,"07:16:40",1
"16/05/07","07:30",0.0,16.7,90.1,1006.2,324.0,1.1,1.8,334.1,0.08,15.1,16.4,"07:29:04",1
"16/05/07","07:40",0.0,17.0,89.0,1006.2,318.2,1.2,1.7,320.1,0.05,15.2,16.4,"07:34:16",1
"16/05/07","07:50",0.0,17.1,88.2,1006.0,322.2,1.5,2.1,319.9,0.05,15.2,16.5,"07:42:56",1
"16/05/07","08:00",0.0,17.3,87.2,1006.2,298.4,1.1,1.7,300.5,0.07,15.2,16.5,"07:53:12",1
"16/05/07","08:10",0.0,17.5,85.8,1006.4,292.5,0.8,1.3,332.6,0.11,15.1,16.3,"08:09:36",1
"16/05/07","08:20",0.0,17.9,84.7,1006.2,324.6,1.1,2.0,335.0,0.08,15.3,16.5,"08:10:32",1
"16/05/07","08:30",0.0,17.8,84.0,1006.7,322.3,0.7,1.6,330.4,0.06,15.1,16.6,"08:27:52",1
"16/05/07","08:40",0.0,17.8,83.3,1006.2,305.7,0.6,1.4,322.3,0.05,15.0,16.5,"08:33:20",1
"16/05/07","08:50",0.0,17.6,84.3,1006.0,150.0,0.5,1.0,185.7,0.05,15.0,16.6,"08:46:16",1
"16/05/07","09:00",0.0,17.6,83.2,1006.0,0.6,0.3,0.9,308.4,0.05,14.8,16.7,"08:53:28",1
"16/05/07","09:10",0.0,17.8,82.5,1006.0,338.9,0.5,1.2,341.6,0.07,14.8,16.8,"09:07:04",1
"16/05/07","09:20",0.0,17.8,81.7,1005.5,179.5,0.1,0.6,107.0,0.12,14.7,16.7,"09:13:52",1
"16/05/07","09:30",0.0,18.2,83.3,1005.2,250.0,0.6,1.2,239.9,0.13,15.4,16.8,"09:24:24",1
"16/05/07","09:40",0.0,18.1,80.8,1005.7,333.2,1.2,2.5,340.0,0.12,14.8,16.7,"09:38:56",1
"16/05/07","09:50",0.0,18.2,81.4,1005.7,343.5,1.1,2.9,341.5,0.12,15.0,16.7,"09:40:16",1
"16/05/07","10:00",0.0,18.5,82.4,1005.5,317.0,1.1,2.1,342.3,0.13,15.5,16.9,"09:52:24",1
"16/05/07","10:10",0.0,18.4,80.5,1005.5,332.5,1.6,2.5,332.4,0.13,15.0,17.0,"10:04:08",1
"16/05/07","10:20",0.0,18.5,80.9,1005.5,335.8,1.1,2.2,351.3,0.12,15.2,17.2,"10:14:56",1
"16/05/07","10:30",0.0,18.5,78.6,1005.5,0.3,0.8,2.1,331.2,0.13,14.8,17.1,"10:29:28",1
"16/05/07","10:40",0.0,19.2,76.6,1005.0,330.0,1.0,1.9,332.9,0.24,15.0,17.2,"10:39:44",1
"16/05/07","10:50",0.0,19.8,77.5,1005.0,298.0,1.0,2.1,346.5,0.36,15.8,17.3,"10:43:52",1
"16/05/07","11:00",0.0,19.7,76.3,1005.0,268.3,1.0,2.5,238.2,0.22,15.5,17.4,"10:51:20",1
"16/05/07","11:10",0.0,20.2,77.5,1004.5,336.2,0.8,2.0,330.1,0.29,16.2,17.4,"11:07:04",1
"16/05/07","11:20",0.0,19.8,75.3,1004.5,349.9,1.5,2.9,340.5,0.22,15.3,17.4,"11:18:16",1
"16/05/07","11:30",0.0,19.8,75.5,1004.3,0.8,1.1,2.5,351.5,0.18,15.4,17.5,"11:22:16",1
"16/05/07","11:40",0.0,19.8,75.0,1004.3,22.0,0.6,1.1,349.3,0.15,15.3,17.8,"11:32:40",1
"16/05/07","11:50",0.0,19.9,76.3,1004.1,298.6,0.8,1.6,315.9,0.12,15.6,17.7,"11:48:32",1
"16/05/07","12:00",0.0,20.1,75.4,1004.1,263.9,0.6,1.4,324.2,0.17,15.7,17.8,"11:50:16",1
"16/05/07","12:10",0.0,21.2,75.4,1003.8,251.5,0.7,2.2,236.4,0.35,16.7,17.9,"12:01:04",1
"16/05/07","12:20",0.0,20.5,76.2,1004.1,145.1,0.7,1.7,148.7,0.16,16.2,18.0,"12:15:28",1
"16/05/07","12:30",0.0,20.5,73.6,1004.1,343.1,0.6,1.4,350.1,0.12,15.7,18.0,"12:26:32",1
"16/05/07","12:40",0.0,20.6,74.3,1004.1,181.0,1.2,3.1,196.5,0.10,15.9,17.9,"12:30:02",1
"16/05/07","12:50",0.0,20.4,75.2,1004.1,170.6,1.1,2.7,123.3,0.07,15.9,18.1,"12:40:56",1
"16/05/07","13:00",0.0,20.5,75.9,1003.8,175.6,1.3,2.6,174.8,0.07,16.1,18.3,"12:53:44",1
"16/05/07","13:10",0.0,20.6,75.1,1003.8,231.6,0.8,1.9,344.4,0.07,16.1,18.2,"13:00:02",1
"16/05/07","13:20",0.0,20.7,74.9,1004.1,349.7,1.0,2.4,332.0,0.07,16.1,18.4,"13:16:00",1
"16/05/07","13:30",0.0,20.8,73.8,1003.8,344.6,1.5,2.7,342.4,0.09,16.0,18.2,"13:24:00",1
"16/05/07","13:40",0.0,21.1,73.4,1004.1,332.6,1.3,2.2,342.2,0.12,16.2,18.4,"13:36:24",1
"16/05/07","13:50",0.0,21.4,72.1,1003.6,323.4,0.7,2.0,337.6,0.13,16.2,18.3,"13:42:48",1
"16/05/07","14:00",0.0,21.2,72.6,1004.1,334.1,0.7,1.3,343.2,0.13,16.1,18.2,"13:57:12",1
"16/05/07","14:10",0.0,21.6,73.9,1003.8,330.3,0.8,1.9,343.6,0.11,16.8,18.2,"14:03:44",1
"16/05/07","14:20",0.0,21.5,71.4,1003.6,83.5,0.7,2.4,106.4,0.15,16.2,18.4,"14:13:12",1
"16/05/07","14:30",0.0,21.9,70.6,1003.6,41.3,0.7,1.7,21.2,0.20,16.4,18.2,"14:23:20",1
"16/05/07","14:40",0.0,22.6,70.0,1003.6,204.4,0.5,1.6,168.5,0.26,16.9,18.4,"14:38:40",1
"16/05/07","14:50",0.0,22.7,70.4,1003.6,296.3,0.5,1.1,228.2,0.18,17.1,18.6,"14:40:16",1
"16/05/07","15:00",0.0,22.9,68.7,1003.6,321.2,0.6,1.6,13.2,0.19,16.9,18.6,"14:53:04",1
"16/05/07","15:10",0.0,22.9,67.5,1003.4,207.7,1.2,2.5,195.3,0.27,16.6,18.7,"15:05:36",1
"16/05/07","15:20",0.0,23.0,69.0,1003.1,229.7,1.2,2.9,226.3,0.32,17.0,18.7,"15:15:12",1
"16/05/07","15:30",0.0,22.6,71.6,1003.4,220.7,1.5,4.1,235.7,0.16,17.3,19.0,"15:25:52",1
"16/05/07","15:40",0.0,22.8,67.8,1003.1,198.9,1.6,2.9,232.5,0.24,16.6,19.0,"15:39:28",1
"16/05/07","15:50",0.0,23.1,68.5,1003.1,217.0,1.0,2.5,236.9,0.21,17.0,19.1,"15:40:16",1
"16/05/07","16:00",0.0,23.1,67.8,1003.1,249.9,0.7,2.1,310.8,0.12,16.9,18.9,"15:53:20",1
"16/05/07","16:10",0.0,23.0,69.2,1003.6,154.7,1.0,2.1,150.0,0.16,17.1,19.2,"16:06:56",1
"16/05/07","16:20",0.0,22.9,69.0,1003.1,149.9,1.1,1.9,118.8,0.11,17.0,19.1,"16:10:24",1
"16/05/07","16:30",0.0,22.1,70.3,1003.6,135.0,1.5,3.3,109.7,0.11,16.5,19.2,"16:28:48",1
"16/05/07","16:40",0.0,22.1,69.6,1004.1,93.2,1.6,2.8,83.3,0.11,16.3,19.3,"16:32:24",1
"16/05/07","16:50",0.0,21.8,69.2,1003.8,98.4,1.8,4.7,115.5,0.11,15.9,19.3,"16:47:20",1
"16/05/07","17:00",0.0,21.1,72.1,1004.3,103.1,1.5,3.2,106.1,0.09,15.9,19.1,"16:54:00",1
"16/05/07","17:10",0.0,20.9,72.5,1004.3,99.5,1.2,2.6,119.2,0.05,15.8,19.2,"17:09:12",1
"16/05/07","17:20",0.0,20.5,73.9,1004.3,131.4,1.2,2.2,111.7,0.03,15.7,19.0,"17:16:08",1
"16/05/07","17:30",0.0,20.3,74.2,1004.5,108.7,1.0,2.5,116.4,0.00,15.6,19.0,"17:24:32",1
"16/05/07","17:40",0.0,20.0,74.4,1005.2,136.6,1.2,2.9,128.3,0.01,15.4,19.2,"17:36:16",1
"16/05/07","17:50",0.0,19.8,75.2,1005.2,143.6,1.0,3.3,116.7,0.02,15.3,19.0,"17:41:52",1
"16/05/07","18:00",0.0,19.7,75.5,1005.5,157.8,1.0,2.7,119.3,0.02,15.3,19.1,"17:50:48",1
"16/05/07","18:10",0.0,19.6,75.1,1005.5,197.8,0.7,1.7,131.6,0.01,15.1,19.1,"18:00:32",1
"16/05/07","18:20",0.0,19.5,76.6,1006.0,192.8,0.6,1.4,181.6,0.00,15.3,18.8,"18:14:00",1
"16/05/07","18:30",0.0,19.2,78.2,1006.0,316.0,1.0,2.0,339.2,0.00,15.4,18.8,"18:26:00",1
"16/05/07","18:40",0.0,18.8,80.0,1006.2,320.6,1.3,1.9,336.3,0.00,15.3,18.9,"18:36:08",1
"16/05/07","18:50",0.0,18.4,82.0,1006.2,340.7,1.7,3.5,339.7,0.00,15.3,18.7,"18:49:44",1
"16/05/07","19:00",0.0,18.2,78.0,1006.7,344.3,1.7,3.6,346.9,0.00,14.3,18.8,"18:55:28",1
"16/05/07","19:10",0.0,17.8,76.4,1006.9,342.1,1.8,2.8,345.0,0.00,13.6,18.7,"19:08:32",1
"16/05/07","19:20",0.0,17.8,73.2,1006.9,336.0,1.7,2.7,335.0,0.00,13.0,18.5,"19:14:48",1
"16/05/07","19:30",0.0,18.1,70.1,1007.1,346.1,1.6,3.4,354.9,0.00,12.6,18.7,"19:22:32",1
"16/05/07","19:40",0.0,18.0,71.2,1007.6,306.1,1.0,2.2,333.2,0.00,12.8,18.4,"19:33:36",1
"16/05/07","19:50",0.0,17.4,71.2,1007.6,277.0,0.8,1.6,326.8,0.00,12.2,18.4,"19:47:36",1
"16/05/07","20:00",0.0,17.2,70.2,1007.6,245.3,1.0,1.6,235.1,0.00,11.8,18.3,"19:52:24",1
"16/05/07","20:10",0.0,17.1,69.6,1007.8,274.6,1.1,1.8,242.1,0.00,11.5,18.3,"20:02:16",1
"16/05/07","20:20",0.0,16.8,70.7,1007.8,323.3,1.5,2.5,349.4,0.00,11.5,18.2,"20:13:28",1
"16/05/07","20:30",0.0,16.5,70.1,1008.3,302.3,1.1,2.1,317.1,0.00,11.1,18.1,"20:24:16",1
"16/05/07","20:40",0.0,16.1,74.5,1008.3,338.1,1.1,2.8,347.3,0.00,11.6,17.9,"20:32:40",1
"16/05/07","20:50",0.0,15.5,77.2,1008.6,338.9,1.1,2.6,340.9,0.00,11.6,17.9,"20:49:12",1
"16/05/07","21:00",0.0,14.9,78.6,1009.0,320.1,1.1,2.0,347.1,0.00,11.3,17.9,"20:57:04",1
"16/05/07","21:10",0.0,14.5,79.9,1009.0,299.5,1.0,1.6,307.1,0.00,11.1,17.7,"21:08:32",1
"16/05/07","21:20",0.0,14.2,80.8,1009.3,287.3,1.2,1.9,303.6,0.00,11.0,17.5,"21:12:24",1
"16/05/07","21:30",0.0,14.0,81.0,1009.5,293.0,1.1,1.4,321.1,0.00,10.8,17.7,"21:23:20",1
"16/05/07","21:40",0.0,13.8,81.8,1009.5,291.4,1.0,2.0,319.9,0.00,10.8,17.6,"21:39:20",1
"16/05/07","21:50",0.0,13.6,82.3,1009.5,291.3,1.1,1.7,301.4,0.00,10.7,17.4,"21:47:20",1
"16/05/07","22:00",0.0,13.3,83.2,1009.7,308.1,1.2,1.7,299.0,0.00,10.6,17.2,"21:50:40",1
"16/05/07","22:10",0.0,13.0,84.3,1010.0,316.2,0.8,1.7,317.9,0.00,10.5,17.3,"22:09:44",1
"16/05/07","22:20",0.0,12.7,85.1,1009.7,302.2,1.2,1.8,317.0,0.00,10.3,17.0,"22:10:48",1
"16/05/07","22:30",0.0,12.4,85.8,1010.0,296.6,1.1,1.4,313.7,0.00,10.1,16.9,"22:24:08",1
"16/05/07","22:40",0.0,12.3,85.4,1010.0,297.6,1.3,2.2,330.1,0.00,10.0,17.1,"22:39:56",1
"16/05/07","22:50",0.0,12.2,85.4,1009.7,305.8,1.5,2.0,322.4,0.00,9.9,17.0,"22:40:24",1
"16/05/07","23:00",0.0,12.0,85.2,1010.0,310.1,1.6,2.2,298.1,0.00,9.6,16.9,"22:58:16",1
"16/05/07","23:10",0.0,12.0,85.2,1010.2,310.3,1.2,2.5,318.8,0.00,9.6,16.6,"23:04:02",1
"16/05/07","23:20",0.0,11.7,85.5,1010.2,306.1,1.2,2.0,321.0,0.00,9.4,16.7,"23:15:08",1
"16/05/07","23:30",0.0,11.5,86.1,1010.0,294.1,1.0,2.1,318.7,0.00,9.3,16.6,"23:20:18",1
"16/05/07","23:40",0.0,11.3,86.8,1010.0,287.2,1.1,1.4,321.9,0.00,9.2,16.5,"23:33:44",1
"16/05/07","23:50",0.0,11.3,87.3,1010.2,295.2,1.3,1.8,302.6,0.00,9.3,16.5,"23:47:28",1
"16/05/07","24:00",0.0,11.4,86.5,1010.2,284.1,1.5,1.8,270.5,0.00,9.3,16.6,"23:57:44",1
